Weather History for KLHQ - March, 2013

Change the Weather History Date:

Monday, March 18, 2013

  Actual Average Record
Temperature  
Mean Temperature 42 °F -  
Max Temperature 52 °F 48 °F 75 °F (2009)
Min Temperature 32 °F 25 °F 8 °F (1941)
Degree Days  
Heating Degree Days 23    
Moisture  
Dew Point 38 °F    
Average Humidity 87    
Maximum Humidity 94    
Minimum Humidity 70    
Precipitation  
Precipitation 0.69 in - - ()
Sea Level Pressure  
Sea Level Pressure 29.78 in    
Wind  
Wind Speed 11 mph (SSE)    
Max Wind Speed 17 mph    
Max Gust Speed 26 mph    
Visibility 6 miles    
Events Rain , Thunderstorm    
Averages and records for this station are not official NWS values.
T = Trace of Precipitation, MM = Missing Value Source: NWS Daily Summary

Daily Weather History Graph

Daily Weather History Graph

Search for Another Location

Airport or City:

Trip Planner

Search our weather history database for the weather conditions in past years. The results will help you decide how hot, cold, wet, or windy it might be!

Date:

Astronomy

Mar. 18, 2013 Rise Set
Actual Time 7:36 AM EDT 7:40 PM EDT
Civil Twilight 7:10 AM EDT 8:07 PM EDT
Nautical Twilight 6:38 AM EDT 8:39 PM EDT
Astronomical Twilight 6:06 AM EDT 9:11 PM EDT
Moon 11:36 AM EDT (3/18) 1:38 AM EDT (3/18)
Length of Visible Light 12h 57m
Length of Day
12h 04m
Waxing Crescent, 40% of the Moon is Illuminated
Mar 18
Waxing Crescent
Mar 19
First Quarter
Mar 27
Full
Apr 3
Last Quarter
Apr 10
New

Hourly Weather History & Observations

Time (EDT) Temp. Windchill Dew Point Humidity Pressure Visibility Wind Dir Wind Speed Gust Speed Precip Events Conditions
12:38 AM 33.8 °F 25.8 °F 24.8 °F 70% 30.05 in 10.0 mi East 10.4 mph - N/A   Overcast
12:53 AM 33.1 °F 23.9 °F 25.0 °F 72% 30.06 in 10.0 mi East 12.7 mph 18.4 mph N/A   Overcast
1:53 AM 33.1 °F 26.9 °F 26.1 °F 75% 30.04 in 6.0 mi East 6.9 mph - 0.00 in Rain Light Rain
2:26 AM 32.0 °F 24.2 °F 26.6 °F 80% 30.02 in 5.0 mi ENE 9.2 mph - 0.03 in Rain Light Freezing Rain
2:53 AM 32.0 °F 23.0 °F 27.0 °F 82% 30.02 in 5.0 mi East 11.5 mph 18.4 mph 0.06 in Rain Light Freezing Rain
3:05 AM 32.0 °F 23.6 °F 26.6 °F 80% 29.99 in 5.0 mi East 10.4 mph - 0.02 in Rain Light Freezing Rain
3:29 AM 32.0 °F 24.2 °F 28.4 °F 87% 29.98 in 4.0 mi East 9.2 mph - 0.06 in Rain Light Freezing Rain
3:53 AM 32.0 °F 23.6 °F 28.0 °F 85% 29.98 in 4.0 mi East 10.4 mph - 0.10 in Rain Light Freezing Rain
3:59 AM 32.0 °F 24.2 °F 28.4 °F 87% 29.96 in 3.0 mi East 9.2 mph 17.3 mph 0.01 in Rain Light Freezing Rain
4:15 AM 32.0 °F 24.2 °F 28.4 °F 87% 29.95 in 4.0 mi East 9.2 mph - 0.02 in   Overcast
4:53 AM 33.1 °F 25.5 °F 28.9 °F 85% 29.92 in 5.0 mi ESE 9.2 mph - 0.03 in   Overcast
5:53 AM 33.1 °F 24.9 °F 30.0 °F 89% 29.91 in 5.0 mi ESE 10.4 mph - 0.05 in Rain Light Rain
6:17 AM 33.8 °F 27.7 °F 30.2 °F 87% 29.86 in 5.0 mi East 6.9 mph - 0.02 in Rain Light Rain
7:53 AM 35.1 °F 26.9 °F 33.1 °F 92% 29.85 in 3.0 mi ESE 11.5 mph - 0.13 in Rain Heavy Rain
7:56 AM 35.6 °F 27.1 °F 33.8 °F 93% 29.83 in 2.5 mi ESE 12.7 mph - 0.02 in Rain Heavy Rain
8:03 AM 35.6 °F 28.0 °F 33.8 °F 93% 29.82 in 2.5 mi ESE 10.4 mph - 0.07 in Rain Heavy Rain
8:21 AM 35.6 °F 26.6 °F 33.8 °F 93% 29.80 in 2.5 mi ESE 13.8 mph - 0.18 in Rain , Thunderstorm Heavy Rain
8:30 AM 35.6 °F 26.2 °F 33.8 °F 93% 29.77 in 2.0 mi ESE 15.0 mph - 0.23 in Rain Heavy Rain
8:36 AM 35.6 °F 26.6 °F 33.8 °F 93% 29.77 in 2.5 mi ESE 13.8 mph - 0.25 in Rain Rain
8:46 AM 35.6 °F 28.6 °F 33.8 °F 93% 29.77 in 3.0 mi ESE 9.2 mph - 0.26 in Rain Rain
8:53 AM 37.0 °F 30.4 °F 35.1 °F 93% 29.80 in 4.0 mi SE 9.2 mph - 0.26 in Rain Light Rain
9:53 AM 37.9 °F 33.5 °F 36.0 °F 93% 29.79 in 5.0 mi ESE 5.8 mph - 0.00 in   Overcast
10:53 AM 41.0 °F 37.1 °F 37.9 °F 89% 29.78 in 10.0 mi SSE 5.8 mph - N/A   Overcast
11:53 AM 43.0 °F 37.2 °F 39.0 °F 86% 29.75 in 10.0 mi South 10.4 mph - N/A   Overcast
12:30 PM 42.8 °F 36.6 °F 39.2 °F 87% 29.73 in 10.0 mi SSE 11.5 mph - 0.00 in   Overcast
12:53 PM 44.1 °F 38.1 °F 41.0 °F 89% 29.73 in 10.0 mi SSE 11.5 mph - 0.00 in   Overcast
1:53 PM 46.0 °F 39.9 °F 42.1 °F 86% 29.70 in 10.0 mi SSE 13.8 mph 21.9 mph 0.01 in   Overcast
2:53 PM 48.0 °F - 44.1 °F 86% 29.67 in 7.0 mi SSE 11.5 mph - N/A   Overcast
3:53 PM 50.0 °F - 46.0 °F 86% 29.64 in 10.0 mi South 10.4 mph - 0.00 in   Overcast
4:03 PM 51.8 °F - 46.4 °F 82% 29.63 in 10.0 mi South 13.8 mph 19.6 mph N/A   Overcast
4:36 PM 51.8 °F - 46.4 °F 82% 29.62 in 10.0 mi South 11.5 mph - N/A   Overcast
4:53 PM 52.0 °F - 46.9 °F 83% 29.63 in 10.0 mi South 11.5 mph 17.3 mph N/A   Overcast
5:32 PM 51.8 °F - 48.2 °F 88% 29.62 in 10.0 mi SSW 9.2 mph - N/A   Overcast
5:53 PM 52.0 °F - 48.9 °F 89% 29.63 in 2.0 mi SSW 11.5 mph 18.4 mph 0.00 in Rain Light Rain
6:00 PM 51.8 °F - 48.2 °F 88% 29.61 in 2.5 mi South 10.4 mph - 0.00 in Rain Light Rain
6:04 PM 51.8 °F - 48.2 °F 88% 29.61 in 3.0 mi SSW 10.4 mph - 0.00 in Rain Light Rain
6:53 PM 52.0 °F - 48.9 °F 89% 29.64 in 3.0 mi SW 10.4 mph - 0.01 in Rain Light Rain
7:00 PM 51.8 °F - 48.2 °F 88% 29.64 in 2.0 mi West 11.5 mph - 0.02 in Rain Light Rain
7:03 PM 51.8 °F - 48.2 °F 88% 29.65 in 1.8 mi West 11.5 mph - 0.02 in Rain Rain
7:09 PM 51.8 °F - 48.2 °F 88% 29.64 in 2.5 mi West 12.7 mph 18.4 mph 0.03 in Rain Light Rain
7:16 PM 50.0 °F - 48.2 °F 94% 29.64 in 4.0 mi West 17.3 mph 21.9 mph 0.03 in Rain Light Rain
7:53 PM 50.0 °F - 46.9 °F 89% 29.69 in 3.0 mi West 13.8 mph 25.3 mph 0.03 in Rain Light Rain
8:36 PM 48.2 °F - 46.4 °F 93% 29.69 in 8.0 mi West 13.8 mph 20.7 mph 0.01 in   Overcast
8:53 PM 48.9 °F - 46.0 °F 90% 29.70 in 8.0 mi West 12.7 mph 19.6 mph 0.01 in   Overcast
9:23 PM 48.2 °F - 44.6 °F 87% 29.70 in 5.0 mi West 13.8 mph 24.2 mph N/A   Overcast
9:47 PM 46.4 °F 40.4 °F 44.6 °F 93% 29.70 in 3.0 mi West 13.8 mph 24.2 mph 0.00 in Rain Light Rain
9:53 PM 46.9 °F - 44.1 °F 90% 29.72 in 3.0 mi West 16.1 mph 26.5 mph 0.00 in Rain Light Rain
10:07 PM 46.4 °F 40.1 °F 42.8 °F 87% 29.72 in 7.0 mi West 15.0 mph 26.5 mph 0.00 in   Overcast
10:53 PM 43.0 °F 37.7 °F 39.0 °F 86% 29.76 in 10.0 mi WNW 9.2 mph 20.7 mph 0.00 in   Overcast
11:53 PM 43.0 °F 37.2 °F 36.0 °F 76% 29.80 in 10.0 mi West 10.4 mph 18.4 mph N/A   Overcast